| time (UTC) | temp C | wind direction | speed KPH | gust KPH | rain 1hr cm | rain 24hr cm | rain mn cm | humidity % | barometer mb |
| 20260905073957 | 20 | 225 | 0.0 | 0.0 | 0.00 | 0.66 | 0.00 | 96 | 1040.3 |
| 20260905073458 | 20 | 225 | 0.0 | 0.0 | 0.00 | 0.66 | 0.00 | 96 | 1040.6 |
| 20260905072958 | 20 | 225 | 0.0 | 0.0 | 0.00 | 0.66 | 0.00 | 96 | 1040.6 |
| 20260905072457 | 20 | 225 | 0.0 | 0.0 | 0.00 | 0.66 | 0.00 | 96 | 1040.6 |
| 20260905071958 | 20 | 225 | 0.0 | 0.0 | 0.00 | 0.66 | 0.00 | 96 | 1040.7 |
| 20260905071726 | 20 | 225 | 0.0 | 0.0 | 0.00 | 0.66 | 0.00 | 96 | 1040.7 |
| 20260905071000 | 20 | 225 | 0.0 | 0.0 | 0.00 | 0.66 | 0.00 | 95 | 1040.7 |
| 20260905070500 | 20 | 225 | 0.0 | 0.0 | 0.00 | 0.66 | 0.00 | 95 | 1040.8 |
| 20260905065954 | 20 | 225 | 0.0 | 0.0 | 0.00 | 0.66 | 0.00 | 95 | 1040.8 |
| 20260905065442 | 20 | 232 | 0.0 | 0.0 | 0.00 | 0.66 | 0.00 | 95 | 1040.8 |
| 20260905064931 | 20 | 231 | 0.0 | 0.0 | 0.00 | 0.66 | 0.00 | 95 | 1040.8 |
| 20260905064642 | 20 | 232 | 0.0 | 0.0 | 0.00 | 0.66 | 0.00 | 95 | 1040.8 |
| 20260905063906 | 20 | 232 | 0.0 | 0.0 | 0.00 | 0.66 | 0.00 | 94 | 1040.8 |
| 20260905063354 | 20 | 231 | 0.0 | 0.0 | 0.00 | 0.66 | 0.00 | 94 | 1041.0 |
| 20260905062844 | 21 | 231 | 0.0 | 0.0 | 0.00 | 0.66 | 0.00 | 94 | 1041.0 |
| 20260905062336 | 21 | 231 | 0.0 | 0.0 | 0.00 | 0.66 | 0.00 | 93 | 1041.3 |
| 20260905061830 | 21 | 231 | 0.0 | 0.0 | 0.00 | 0.66 | 0.00 | 93 | 1041.3 |
| 20260905061322 | 21 | 231 | 0.0 | 1.6 | 0.00 | 0.66 | 0.00 | 93 | 1041.3 |
| 20260905060817 | 21 | 231 | 0.0 | 3.2 | 0.00 | 0.66 | 0.00 | 93 | 1041.3 |
| 20260905060312 | 21 | 249 | 1.6 | 6.4 | 0.00 | 0.66 | 0.00 | 93 | 1041.3 |
| 20260905055801 | 21 | 230 | 1.6 | 6.4 | 0.00 | 0.66 | 0.00 | 93 | 1041.3 |
| 20260905055259 | 21 | 252 | 0.0 | 4.8 | 0.00 | 0.66 | 0.00 | 93 | 1041.5 |
| 20260905054754 | 21 | 241 | 0.0 | 3.2 | 0.00 | 0.66 | 0.00 | 93 | 1041.5 |
| 20260905054248 | 21 | 193 | 0.0 | 3.2 | 0.00 | 0.66 | 0.00 | 93 | 1041.5 |
| 20260905053741 | 21 | 218 | 0.0 | 4.8 | 0.00 | 0.66 | 0.00 | 94 | 1041.8 |
| 20260905053237 | 21 | 258 | 0.0 | 4.8 | 0.00 | 0.66 | 0.00 | 94 | 1041.8 |
| 20260905052730 | 21 | 207 | 0.0 | 1.6 | 0.00 | 0.66 | 0.00 | 94 | 1041.8 |
| 20260905052216 | 21 | 265 | 0.0 | 1.6 | 0.00 | 0.66 | 0.00 | 94 | 1042.2 |
| 20260905051718 | 21 | 240 | 0.0 | 4.8 | 0.00 | 0.66 | 0.00 | 95 | 1042.2 |
| 20260905051211 | 21 | 247 | 0.0 | 4.8 | 0.00 | 0.66 | 0.00 | 95 | 1042.2 |
| 20260905050706 | 21 | 277 | 0.0 | 3.2 | 0.00 | 0.66 | 0.00 | 95 | 1042.3 |
| 20260905050422 | 21 | 275 | 0.0 | 3.2 | 0.00 | 0.66 | 0.00 | 96 | 1042.3 |
| 20260905045646 | 21 | 238 | 0.0 | 3.2 | 0.00 | 0.66 | 0.00 | 96 | 1042.3 |
| 20260905045148 | 21 | 302 | 0.0 | 3.2 | 0.00 | 0.66 | 0.00 | 96 | 1042.2 |
| 20260905044634 | 21 | 304 | 0.0 | 3.2 | 0.00 | 0.66 | 0.00 | 96 | 1042.2 |
| 20260905044136 | 21 | 350 | 0.0 | 1.6 | 0.00 | 0.66 | 0.00 | 96 | 1042.2 |
| 20260905043852 | 21 | 257 | 0.0 | 1.6 | 0.00 | 0.66 | 0.00 | 97 | 1042.2 |
| 20260905043123 | 21 | 35 | 0.0 | 1.6 | 0.00 | 0.66 | 0.00 | 97 | 1042.2 |
| 20260905042617 | 21 | 38 | 0.0 | 1.6 | 0.00 | 0.66 | 0.00 | 97 | 1042.2 |
| 20260905042326 | 21 | 15 | 0.0 | 0.0 | 0.00 | 0.66 | 0.00 | 97 | 1042.1 |
| 20260905041606 | 21 | 292 | 0.0 | 1.6 | 0.00 | 0.69 | 0.00 | 97 | 1042.1 |
| 20260905041100 | 21 | 292 | 0.0 | 1.6 | 0.00 | 0.69 | 0.00 | 97 | 1042.1 |
| 20260905040817 | 21 | 299 | 0.0 | 1.6 | 0.00 | 0.74 | 0.00 | 97 | 1042.3 |
| 20260905040048 | 21 | 295 | 0.0 | 1.6 | 0.00 | 0.74 | 0.00 | 97 | 1042.3 |
| 20260905035542 | 21 | 295 | 0.0 | 1.6 | 0.00 | 0.76 | 0.74 | 97 | 1042.3 |
| 20260905035035 | 21 | 266 | 0.0 | 1.6 | 0.00 | 0.79 | 0.74 | 97 | 1042.3 |
| 20260905034529 | 21 | 266 | 0.0 | 1.6 | 0.00 | 0.79 | 0.74 | 98 | 1042.3 |
| 20260905034024 | 21 | 266 | 0.0 | 1.6 | 0.00 | 0.81 | 0.74 | 98 | 1042.3 |
| 20260905033734 | 21 | 266 | 0.0 | 0.0 | 0.00 | 0.81 | 0.74 | 98 | 1042.4 |
| 20260905033233 | 21 | 266 | 0.0 | 1.6 | 0.00 | 0.81 | 0.74 | 98 | 1042.4 |
| 20260905032506 | 21 | 266 | 0.0 | 1.6 | 0.00 | 0.81 | 0.74 | 98 | 1042.4 |
| 20260905031959 | 21 | 260 | 0.0 | 1.6 | 0.00 | 0.84 | 0.74 | 98 | 1042.3 |
| 20260905031715 | 21 | 260 | 0.0 | 1.6 | 0.00 | 0.84 | 0.74 | 99 | 1042.3 |
| 20260905030943 | 21 | 260 | 0.0 | 1.6 | 0.00 | 0.91 | 0.74 | 99 | 1042.3 |
| 20260905030442 | 21 | 260 | 0.0 | 1.6 | 0.00 | 0.94 | 0.74 | 99 | 1042.3 |
| 20260905025929 | 21 | 232 | 0.0 | 1.6 | 0.00 | 0.94 | 0.74 | 99 | 1042.3 |
| 20260905025430 | 21 | 227 | 0.0 | 0.0 | 0.00 | 0.94 | 0.74 | 99 | 1042.3 |
| 20260905024924 | 21 | 227 | 0.0 | 0.0 | 0.00 | 0.97 | 0.74 | 98 | 1042.2 |
| 20260905024418 | 20 | 227 | 0.0 | 0.0 | 0.00 | 1.02 | 0.74 | 98 | 1042.2 |
| 20260905023912 | 20 | 227 | 0.0 | 0.0 | 0.00 | 1.04 | 0.74 | 98 | 1042.2 |
| 20260905023358 | 21 | 227 | 0.0 | 0.0 | 0.00 | 1.17 | 0.74 | 98 | 1042.2 |
| 20260905022900 | 21 | 227 | 0.0 | 0.0 | 0.00 | 1.30 | 0.74 | 98 | 1042.2 |
| 20260905022354 | 21 | 227 | 0.0 | 0.0 | 0.00 | 1.60 | 0.74 | 98 | 1041.9 |
| 20260905021848 | 21 | 227 | 0.0 | 0.0 | 0.00 | 1.65 | 0.74 | 98 | 1041.9 |
| 20260905021342 | 21 | 227 | 0.0 | 0.0 | 0.00 | 1.65 | 0.74 | 98 | 1041.9 |
| 20260905020848 | 21 | 227 | 0.0 | 0.0 | 0.00 | 1.65 | 0.74 | 98 | 1041.7 |
| 20260905020329 | 21 | 227 | 0.0 | 0.0 | 0.00 | 1.65 | 0.74 | 98 | 1041.7 |
| 20260905015817 | 21 | 227 | 0.0 | 0.0 | 0.00 | 1.65 | 0.74 | 98 | 1041.7 |
| 20260905015318 | 21 | 227 | 0.0 | 0.0 | 0.00 | 1.65 | 0.74 | 98 | 1041.4 |
| 20260905014805 | 21 | 227 | 0.0 | 0.0 | 0.00 | 1.65 | 0.74 | 97 | 1041.4 |
| 20260905014306 | 21 | 227 | 0.0 | 0.0 | 0.00 | 1.65 | 0.74 | 97 | 1041.4 |
| 20260905013759 | 21 | 227 | 0.0 | 0.0 | 0.00 | 1.65 | 0.74 | 98 | 1041.2 |
| 20260905013253 | 21 | 227 | 0.0 | 0.0 | 0.00 | 1.65 | 0.74 | 97 | 1041.2 |
| 20260905012747 | 21 | 227 | 0.0 | 0.0 | 0.00 | 1.65 | 0.74 | 97 | 1041.2 |
| 20260905012236 | 21 | 227 | 0.0 | 0.0 | 0.00 | 1.65 | 0.74 | 97 | 1041.3 |
| 20260905011736 | 21 | 227 | 0.0 | 0.0 | 0.00 | 1.65 | 0.74 | 97 | 1041.3 |
| 20260905011223 | 21 | 227 | 0.0 | 0.0 | 0.00 | 1.65 | 0.74 | 97 | 1041.3 |
| 20260905010724 | 21 | 227 | 0.0 | 0.0 | 0.00 | 1.65 | 0.74 | 97 | 1041.2 |
| 20260905010218 | 21 | 227 | 0.0 | 0.0 | 0.00 | 1.65 | 0.74 | 97 | 1041.2 |
| 20260905005931 | 21 | 227 | 0.0 | 0.0 | 0.00 | 1.65 | 0.74 | 97 | 1041.2 |
| 20260905005204 | 21 | 227 | 0.0 | 0.0 | 0.00 | 1.65 | 0.74 | 97 | 1041.3 |
| 20260905004657 | 21 | 227 | 0.0 | 0.0 | 0.00 | 1.65 | 0.74 | 96 | 1041.3 |
| 20260905004152 | 22 | 227 | 0.0 | 0.0 | 0.00 | 1.65 | 0.74 | 96 | 1041.3 |
| 20260905003645 | 22 | 227 | 0.0 | 0.0 | 0.00 | 1.65 | 0.74 | 96 | 1041.3 |
| 20260905003140 | 22 | 227 | 0.0 | 0.0 | 0.00 | 1.65 | 0.74 | 96 | 1041.3 |
| 20260905002636 | 22 | 227 | 0.0 | 0.0 | 0.00 | 1.65 | 0.74 | 96 | 1041.3 |
| 20260905002137 | 22 | 227 | 0.0 | 0.0 | 0.00 | 1.65 | 0.74 | 96 | 1040.9 |
| 20260905001637 | 22 | 227 | 0.0 | 0.0 | 0.00 | 1.65 | 0.74 | 96 | 1040.9 |
| 20260905001137 | 22 | 227 | 0.0 | 0.0 | 0.00 | 1.65 | 0.74 | 96 | 1040.9 |
| 20260905000636 | 22 | 227 | 0.0 | 0.0 | 0.00 | 1.65 | 0.74 | 95 | 1041.1 |
| 20260905000134 | 22 | 227 | 0.0 | 0.0 | 0.00 | 1.65 | 0.74 | 95 | 1041.1 |
| 20260904235634 | 22 | 227 | 0.0 | 0.0 | 0.00 | 1.65 | 0.74 | 95 | 1041.1 |
| 20260904235135 | 22 | 227 | 0.0 | 0.0 | 0.00 | 1.65 | 0.74 | 95 | 1041.2 |
| 20260904234635 | 23 | 227 | 0.0 | 0.0 | 0.00 | 1.65 | 0.74 | 95 | 1041.2 |
| 20260904234133 | 23 | 227 | 0.0 | 0.0 | 0.00 | 1.65 | 0.74 | 94 | 1041.2 |
| 20260904233630 | 23 | 227 | 0.0 | 1.6 | 0.00 | 1.65 | 0.74 | 94 | 1041.3 |
| 20260904233129 | 23 | 227 | 0.0 | 1.6 | 0.00 | 1.65 | 0.74 | 94 | 1041.3 |
| 20260904232629 | 23 | 223 | 0.0 | 0.0 | 0.00 | 1.65 | 0.74 | 94 | 1041.3 |
| 20260904232348 | 23 | 223 | 0.0 | 0.0 | 0.00 | 1.65 | 0.74 | 94 | 1041.3 |
| 20260904231623 | 23 | 223 | 0.0 | 0.0 | 0.00 | 1.65 | 0.74 | 93 | 1041.3 |
| 20260904231112 | 23 | 223 | 0.0 | 0.0 | 0.00 | 1.65 | 0.74 | 93 | 1041.3 |
| 20260904230830 | 23 | 230 | 0.0 | 0.0 | 0.00 | 1.65 | 0.74 | 93 | 1041.2 |
| 20260904230113 | 23 | 230 | 0.0 | 1.6 | 0.00 | 1.65 | 0.74 | 93 | 1041.2 |
| 20260904225612 | 24 | 230 | 0.0 | 3.2 | 0.00 | 1.65 | 0.74 | 92 | 1041.2 |
| 20260904225112 | 24 | 230 | 0.0 | 3.2 | 0.00 | 1.65 | 0.74 | 93 | 1041.6 |
| 20260904224613 | 24 | 246 | 1.6 | 4.8 | 0.00 | 1.65 | 0.74 | 93 | 1041.6 |
| 20260904224113 | 24 | 238 | 0.0 | 4.8 | 0.00 | 1.65 | 0.74 | 92 | 1041.6 |
| 20260904223612 | 24 | 254 | 0.0 | 1.6 | 0.00 | 1.65 | 0.74 | 92 | 1041.8 |
| 20260904223335 | 24 | 272 | 0.0 | 3.2 | 0.00 | 1.65 | 0.74 | 92 | 1041.8 |
| 20260904222612 | 24 | 243 | 0.0 | 4.8 | 0.00 | 1.65 | 0.74 | 92 | 1041.8 |
| 20260904222112 | 24 | 265 | 1.6 | 8.0 | 0.00 | 1.65 | 0.74 | 92 | 1041.8 |
| 20260904221612 | 24 | 234 | 1.6 | 8.0 | 0.00 | 1.65 | 0.74 | 92 | 1041.8 |
| 20260904221113 | 24 | 264 | 1.6 | 6.4 | 0.00 | 1.65 | 0.74 | 93 | 1041.8 |
| 20260904220612 | 24 | 265 | 1.6 | 6.4 | 0.00 | 1.65 | 0.74 | 93 | 1041.6 |
| 20260904220113 | 24 | 269 | 1.6 | 6.4 | 0.00 | 1.65 | 0.74 | 93 | 1041.6 |
| 20260904215613 | 24 | 259 | 0.0 | 4.8 | 0.00 | 1.65 | 0.74 | 94 | 1041.6 |
| 20260904215113 | 24 | 253 | 0.0 | 3.2 | 0.00 | 1.65 | 0.74 | 94 | 1041.6 |
| 20260904214612 | 24 | 276 | 0.0 | 1.6 | 0.00 | 1.65 | 0.74 | 94 | 1041.6 |
| 20260904214110 | 24 | 225 | 0.0 | 0.0 | 0.00 | 1.65 | 0.74 | 94 | 1041.6 |
| 20260904214044 | 24 | 136 | 0.0 | 1.6 | 0.00 | 1.65 | 0.74 | 93 | 1042.1 |
| 20260904213323 | 24 | 241 | 0.0 | 1.6 | 0.00 | 1.65 | 0.74 | 93 | 1042.1 |
| 20260904212553 | 23 | 252 | 0.0 | 3.2 | 0.00 | 1.65 | 0.74 | 93 | 1042.1 |
| 20260904212046 | 23 | 275 | 1.6 | 8.0 | 0.00 | 1.65 | 0.74 | 93 | 1042.1 |
| 20260904211540 | 23 | 234 | 1.6 | 8.0 | 0.00 | 1.65 | 0.74 | 93 | 1042.1 |
| 20260904211034 | 23 | 281 | 1.6 | 6.4 | 0.00 | 1.65 | 0.74 | 93 | 1042.1 |
| 20260904210745 | 23 | 288 | 1.6 | 6.4 | 0.00 | 1.65 | 0.74 | 93 | 1042.3 |
| 20260904210018 | 23 | 157 | 1.6 | 4.8 | 0.00 | 1.65 | 0.74 | 93 | 1042.3 |
| 20260904205516 | 23 | 221 | 1.6 | 4.8 | 0.00 | 1.65 | 0.74 | 93 | 1042.3 |
| 20260904205235 | 23 | 260 | 0.0 | 8.0 | 0.00 | 1.65 | 0.74 | 93 | 1042.3 |
| 20260904204504 | 23 | 243 | 1.6 | 4.8 | 0.00 | 1.65 | 0.74 | 94 | 1042.3 |
| 20260904203958 | 23 | 250 | 1.6 | 4.8 | 0.00 | 1.65 | 0.74 | 93 | 1042.3 |
| 20260904203455 | 23 | 245 | 1.6 | 4.8 | 0.00 | 1.65 | 0.74 | 93 | 1042.4 |
| 20260904202956 | 23 | 260 | 0.0 | 3.2 | 0.00 | 1.65 | 0.74 | 94 | 1042.4 |
| 20260904202454 | 23 | 232 | 0.0 | 3.2 | 0.03 | 1.65 | 0.74 | 94 | 1042.4 |
| 20260904201951 | 23 | 272 | 0.0 | 4.8 | 0.03 | 1.65 | 0.74 | 94 | 1042.2 |
| 20260904201452 | 23 | 219 | 1.6 | 6.4 | 0.03 | 1.65 | 0.74 | 94 | 1042.2 |
| 20260904200951 | 23 | 240 | 1.6 | 6.4 | 0.15 | 1.65 | 0.74 | 94 | 1042.2 |
| 20260904200449 | 23 | 261 | 1.6 | 6.4 | 0.53 | 1.65 | 0.74 | 95 | 1041.7 |
| 20260904195950 | 23 | 232 | 1.6 | 6.4 | 0.64 | 1.65 | 0.74 | 94 | 1041.7 |
| 20260904195450 | 23 | 248 | 0.0 | 4.8 | 0.64 | 1.65 | 0.74 | 94 | 1041.7 |
| 20260904194950 | 23 | 236 | 0.0 | 1.6 | 0.64 | 1.65 | 0.74 | 94 | 1041.8 |
| 20260904194710 | 23 | 147 | 0.0 | 1.6 | 0.64 | 1.65 | 0.74 | 94 | 1041.8 |
| 20260904193948 | 23 | 147 | 0.0 | 3.2 | 0.64 | 1.65 | 0.74 | 93 | 1041.8 |
| 20260904193931 | 23 | 146 | 1.6 | 8.0 | 0.64 | 1.65 | 0.74 | 92 | 1042.2 |
| 20260904192943 | 24 | 138 | 3.2 | 9.7 | 0.64 | 1.65 | 0.74 | 91 | 1042.2 |
| 20260904192443 | 24 | 223 | 1.6 | 9.7 | 0.61 | 1.63 | 0.71 | 90 | 1042.2 |
| 20260904191944 | 25 | 254 | 1.6 | 9.7 | 0.61 | 1.63 | 0.71 | 89 | 1042.3 |
| 20260904191446 | 26 | 349 | 4.8 | 27.4 | 0.61 | 1.63 | 0.71 | 86 | 1042.3 |
| 20260904190945 | 28 | 150 | 4.8 | 27.4 | 0.48 | 1.50 | 0.58 | 79 | 1042.3 |
| 20260904190438 | 30 | 209 | 1.6 | 11.3 | 0.03 | 1.04 | 0.18 | 78 | 1041.4 |
| 20260904185927 | 31 | 103 | 0.0 | 1.6 | 0.00 | 1.02 | 0.10 | 75 | 1041.4 |
| 20260904185426 | 31 | 103 | 0.0 | 3.2 | 0.00 | 1.02 | 0.10 | 74 | 1041.4 |
| 20260904184926 | 31 | 103 | 1.6 | 4.8 | 0.00 | 1.02 | 0.10 | 72 | 1041.6 |
| 20260904184426 | 32 | 122 | 1.6 | 4.8 | 0.00 | 1.02 | 0.10 | 71 | 1041.6 |
| 20260904183926 | 32 | 111 | 0.0 | 3.2 | 0.00 | 1.02 | 0.10 | 70 | 1041.6 |
| 20260904183647 | 32 | 173 | 1.6 | 8.0 | 0.00 | 1.02 | 0.10 | 72 | 1041.7 |
| 20260904183153 | 32 | 127 | 3.2 | 8.0 | 0.00 | 1.02 | 0.10 | 68 | 1041.7 |
| 20260904182428 | 33 | 302 | 3.2 | 8.0 | 0.00 | 1.02 | 0.10 | 69 | 1041.7 |
| 20260904181928 | 33 | 244 | 3.2 | 9.7 | 0.00 | 1.02 | 0.10 | 68 | 1042.3 |
| 20260904181422 | 32 | 273 | 3.2 | 9.7 | 0.00 | 1.02 | 0.10 | 69 | 1042.3 |
| 20260904180910 | 32 | 115 | 3.2 | 12.9 | 0.00 | 1.02 | 0.10 | 69 | 1042.3 |
| 20260904180409 | 32 | 270 | 3.2 | 14.5 | 0.00 | 1.02 | 0.10 | 69 | 1042.3 |
| 20260904175909 | 32 | 319 | 3.2 | 14.5 | 0.00 | 1.02 | 0.10 | 67 | 1042.3 |
| 20260904175410 | 32 | 66 | 1.6 | 12.9 | 0.00 | 1.02 | 0.10 | 72 | 1042.3 |
| 20260904174910 | 32 | 227 | 3.2 | 11.3 | 0.00 | 1.02 | 0.10 | 70 | 1042.4 |
| 20260904174409 | 32 | 237 | 4.8 | 11.3 | 0.00 | 1.02 | 0.10 | 69 | 1042.4 |
| 20260904173909 | 32 | 244 | 4.8 | 12.9 | 0.00 | 1.02 | 0.10 | 70 | 1042.4 |
| 20260904173412 | 32 | 275 | 3.2 | 12.9 | 0.00 | 1.02 | 0.10 | 69 | 1042.7 |
| 20260904173137 | 32 | 254 | 1.6 | 9.7 | 0.00 | 1.02 | 0.10 | 73 | 1042.7 |
| 20260904172406 | 31 | 192 | 1.6 | 9.7 | 0.00 | 1.02 | 0.10 | 71 | 1042.7 |
| 20260904171854 | 31 | 241 | 1.6 | 9.7 | 0.00 | 1.02 | 0.10 | 72 | 1042.9 |
| 20260904171342 | 31 | 38 | 3.2 | 9.7 | 0.00 | 1.02 | 0.10 | 71 | 1042.9 |
| 20260904170832 | 31 | 42 | 3.2 | 9.7 | 0.00 | 1.02 | 0.10 | 73 | 1043.0 |
| 20260904170543 | 31 | 59 | 1.6 | 8.0 | 0.00 | 1.02 | 0.10 | 72 | 1043.0 |
| 20260904165819 | 31 | 314 | 1.6 | 8.0 | 0.00 | 1.02 | 0.10 | 71 | 1043.0 |
| 20260904165312 | 31 | 329 | 3.2 | 6.4 | 0.00 | 1.02 | 0.10 | 70 | 1043.2 |
| 20260904164807 | 31 | 306 | 1.6 | 6.4 | 0.00 | 1.02 | 0.10 | 73 | 1043.2 |
| 20260904164300 | 31 | 321 | 1.6 | 6.4 | 0.00 | 1.02 | 0.10 | 76 | 1043.2 |
| 20260904163755 | 30 | 223 | 3.2 | 8.0 | 0.00 | 1.02 | 0.10 | 71 | 1043.4 |
| 20260904163243 | 30 | 132 | 3.2 | 8.0 | 0.00 | 1.02 | 0.10 | 75 | 1043.4 |
| 20260904162741 | 30 | 74 | 3.2 | 11.3 | 0.00 | 1.02 | 0.10 | 72 | 1043.4 |
| 20260904162236 | 30 | 248 | 3.2 | 11.3 | 0.00 | 1.02 | 0.10 | 73 | 1043.5 |
| 20260904161730 | 30 | 227 | 3.2 | 9.7 | 0.00 | 1.02 | 0.10 | 73 | 1043.5 |
| 20260904161224 | 30 | 131 | 3.2 | 11.3 | 0.00 | 1.02 | 0.10 | 73 | 1043.5 |
| 20260904160718 | 30 | 138 | 1.6 | 11.3 | 0.00 | 1.02 | 0.10 | 74 | 1043.5 |
| 20260904160433 | 29 | 254 | 1.6 | 6.4 | 0.00 | 1.02 | 0.10 | 74 | 1043.5 |
| 20260904155701 | 29 | 309 | 3.2 | 8.0 | 0.00 | 1.02 | 0.10 | 72 | 1043.5 |
| 20260904155159 | 29 | 281 | 3.2 | 11.3 | 0.00 | 1.02 | 0.10 | 76 | 1043.4 |
| 20260904154654 | 29 | 236 | 3.2 | 11.3 | 0.00 | 1.02 | 0.10 | 72 | 1043.4 |
| 20260904154148 | 29 | 269 | 3.2 | 11.3 | 0.00 | 1.02 | 0.10 | 73 | 1043.4 |
| 20260904153908 | 29 | 236 | 3.2 | 9.7 | 0.00 | 1.02 | 0.10 | 73 | 1043.5 |
| 20260904153135 | 29 | 222 | 3.2 | 8.0 | 0.00 | 1.02 | 0.10 | 76 | 1043.5 |
| 20260904152629 | 28 | 238 | 3.2 | 9.7 | 0.00 | 1.02 | 0.10 | 74 | 1043.5 |
| 20260904152346 | 28 | 236 | 1.6 | 9.7 | 0.00 | 1.02 | 0.10 | 74 | 1043.7 |
| 20260904151834 | 28 | 252 | 3.2 | 11.3 | 0.00 | 1.02 | 0.10 | 76 | 1043.7 |
| 20260904151104 | 28 | 24 | 4.8 | 11.3 | 0.00 | 1.02 | 0.10 | 77 | 1043.7 |
| 20260904150603 | 28 | 240 | 3.2 | 11.3 | 0.00 | 1.02 | 0.10 | 77 | 1043.8 |
| 20260904150058 | 28 | 253 | 3.2 | 11.3 | 0.00 | 1.02 | 0.10 | 77 | 1043.8 |
| 20260904145552 | 28 | 258 | 1.6 | 6.4 | 0.00 | 1.02 | 0.10 | 76 | 1043.8 |
| 20260904145046 | 28 | 256 | 3.2 | 11.3 | 0.00 | 1.02 | 0.10 | 78 | 1043.9 |
| 20260904144540 | 28 | 254 | 3.2 | 11.3 | 0.00 | 1.04 | 0.10 | 77 | 1043.9 |
| 20260904144034 | 28 | 277 | 1.6 | 6.4 | 0.00 | 1.12 | 0.10 | 77 | 1043.9 |
| 20260904143527 | 28 | 76 | 1.6 | 6.4 | 0.00 | 1.14 | 0.10 | 79 | 1043.8 |
| 20260904143021 | 27 | 236 | 3.2 | 6.4 | 0.00 | 1.19 | 0.10 | 80 | 1043.8 |
| 20260904142511 | 27 | 231 | 3.2 | 14.5 | 0.00 | 1.19 | 0.10 | 79 | 1043.8 |
| 20260904142009 | 27 | 227 | 1.6 | 14.5 | 0.00 | 1.19 | 0.10 | 79 | 1044.0 |
| 20260904141947 | 27 | 310 | 1.6 | 6.4 | 0.00 | 1.19 | 0.10 | 80 | 1044.0 |
| 20260904140957 | 27 | 231 | 0.0 | 6.4 | 0.00 | 1.19 | 0.10 | 80 | 1044.0 |
| 20260904140451 | 27 | 290 | 0.0 | 6.4 | 0.00 | 1.19 | 0.10 | 84 | 1043.9 |
| 20260904135938 | 27 | 277 | 1.6 | 6.4 | 0.00 | 1.19 | 0.10 | 81 | 1043.9 |
| 20260904135439 | 26 | 108 | 1.6 | 6.4 | 0.00 | 1.19 | 0.10 | 82 | 1043.9 |
| 20260904134926 | 26 | 255 | 3.2 | 9.7 | 0.00 | 1.19 | 0.10 | 83 | 1043.9 |
| 20260904134427 | 26 | 236 | 3.2 | 9.7 | 0.00 | 1.19 | 0.10 | 83 | 1043.9 |
| 20260904133922 | 26 | 239 | 1.6 | 8.0 | 0.00 | 1.19 | 0.10 | 83 | 1043.9 |
| 20260904133632 | 26 | 192 | 1.6 | 8.0 | 0.00 | 1.19 | 0.10 | 86 | 1044.0 |
| 20260904132909 | 25 | 256 | 1.6 | 6.4 | 0.00 | 1.19 | 0.10 | 84 | 1044.0 |
| 20260904132618 | 25 | 219 | 1.6 | 4.8 | 0.00 | 1.19 | 0.10 | 86 | 1044.0 |
| 20260904131858 | 25 | 237 | 0.0 | 4.8 | 0.00 | 1.19 | 0.10 | 86 | 1043.9 |
| 20260904131354 | 25 | 243 | 1.6 | 3.2 | 0.00 | 1.19 | 0.10 | 90 | 1043.9 |
| 20260904131113 | 23 | 243 | 1.6 | 4.8 | 0.00 | 1.19 | 0.10 | 92 | 1043.9 |
| 20260904130340 | 23 | 260 | 1.6 | 4.8 | 0.00 | 1.19 | 0.10 | 92 | 1043.9 |
| 20260904125833 | 23 | 260 | 0.0 | 1.6 | 0.00 | 1.19 | 0.10 | 95 | 1043.9 |
| 20260904125327 | 22 | 261 | 1.6 | 4.8 | 0.00 | 1.19 | 0.10 | 95 | 1043.9 |
| 20260904124818 | 22 | 269 | 1.6 | 4.8 | 0.00 | 1.19 | 0.10 | 97 | 1043.9 |
| 20260904124316 | 22 | 213 | 0.0 | 1.6 | 0.00 | 1.19 | 0.10 | 99 | 1043.9 |
| 20260904123803 | 22 | 213 | 0.0 | 0.0 | 0.00 | 1.19 | 0.10 | 99 | 1044.0 |
| 20260904123304 | 21 | 213 | 0.0 | 4.8 | 0.00 | 1.19 | 0.10 | 99 | 1044.0 |
| 20260904122758 | 21 | 213 | 0.0 | 4.8 | 0.00 | 1.19 | 0.10 | 98 | 1044.0 |
| 20260904122252 | 21 | 24 | 0.0 | 0.0 | 0.00 | 1.19 | 0.10 | 99 | 1043.9 |
| 20260904121745 | 21 | 24 | 0.0 | 1.6 | 0.00 | 1.19 | 0.10 | 99 | 1043.9 |
| 20260904121233 | 21 | 24 | 0.0 | 3.2 | 0.00 | 1.19 | 0.10 | 99 | 1043.9 |
| 20260904120733 | 21 | 252 | 0.0 | 3.2 | 0.00 | 1.19 | 0.10 | 99 | 1043.5 |
| 20260904120220 | 21 | 236 | 0.0 | 3.2 | 0.00 | 1.19 | 0.10 | 99 | 1043.5 |
| 20260904115721 | 21 | 103 | 0.0 | 0.0 | 0.00 | 1.19 | 0.10 | 99 | 1043.5 |
| 20260904115705 | 21 | 100 | 0.0 | 0.0 | 0.00 | 1.19 | 0.10 | 99 | 1043.3 |
| 20260904114709 | 20 | 101 | 0.0 | 0.0 | 0.00 | 1.19 | 0.10 | 99 | 1043.3 |
| 20260904114203 | 20 | 100 | 0.0 | 0.0 | 0.00 | 1.19 | 0.10 | 99 | 1043.3 |
| 20260904113650 | 20 | 101 | 0.0 | 0.0 | 0.00 | 1.19 | 0.10 | 99 | 1043.4 |
| 20260904113151 | 20 | 10 | 0.0 | 0.0 | 0.00 | 1.19 | 0.10 | 99 | 1043.4 |
| 20260904113125 | 20 | 10 | 0.0 | 0.0 | 0.00 | 1.19 | 0.10 | 99 | 1043.4 |
| 20260904112140 | 20 | 295 | 0.0 | 0.0 | 0.00 | 1.19 | 0.10 | 99 | 1043.6 |
| 20260904111634 | 20 | 295 | 0.0 | 0.0 | 0.00 | 1.19 | 0.10 | 99 | 1043.6 |
| 20260904111128 | 19 | 295 | 0.0 | 0.0 | 0.00 | 1.19 | 0.10 | 99 | 1043.6 |
| 20260904110621 | 19 | 295 | 0.0 | 0.0 | 0.00 | 1.19 | 0.10 | 99 | 1043.6 |
| 20260904110109 | 19 | 295 | 0.0 | 0.0 | 0.00 | 1.19 | 0.10 | 99 | 1043.6 |
| 20260904105609 | 19 | 295 | 0.0 | 0.0 | 0.00 | 1.19 | 0.10 | 99 | 1043.6 |
| 20260904105103 | 19 | 242 | 0.0 | 0.0 | 0.00 | 1.19 | 0.10 | 99 | 1043.5 |
| 20260904104823 | 19 | 242 | 0.0 | 0.0 | 0.00 | 1.19 | 0.10 | 99 | 1043.5 |
| 20260904104057 | 19 | 242 | 0.0 | 0.0 | 0.00 | 1.19 | 0.10 | 99 | 1043.5 |
| 20260904103557 | 19 | 242 | 0.0 | 0.0 | 0.00 | 1.19 | 0.10 | 99 | 1043.4 |
| 20260904103315 | 19 | 242 | 0.0 | 0.0 | 0.00 | 1.19 | 0.10 | 99 | 1043.4 |
| 20260904102554 | 19 | 269 | 0.0 | 0.0 | 0.00 | 1.19 | 0.10 | 99 | 1043.4 |
| 20260904102055 | 20 | 269 | 0.0 | 0.0 | 0.00 | 1.19 | 0.10 | 99 | 1043.2 |
| 20260904101555 | 20 | 269 | 0.0 | 0.0 | 0.00 | 1.19 | 0.10 | 99 | 1043.2 |
| 20260904101054 | 20 | 269 | 0.0 | 0.0 | 0.00 | 1.19 | 0.10 | 99 | 1043.2 |
| 20260904100821 | 20 | 269 | 0.0 | 0.0 | 0.00 | 1.19 | 0.10 | 99 | 1043.2 |
| 20260904100058 | 20 | 269 | 0.0 | 0.0 | 0.00 | 1.19 | 0.10 | 99 | 1043.2 |
| 20260904095558 | 20 | 286 | 0.0 | 0.0 | 0.00 | 1.19 | 0.10 | 99 | 1043.2 |
| 20260904095052 | 20 | 289 | 0.0 | 0.0 | 0.00 | 1.19 | 0.10 | 99 | 1043.4 |
| 20260904094539 | 20 | 289 | 0.0 | 0.0 | 0.00 | 1.19 | 0.10 | 99 | 1043.4 |
| 20260904094038 | 20 | 289 | 0.0 | 0.0 | 0.00 | 1.19 | 0.10 | 99 | 1043.4 |
| 20260904093538 | 20 | 290 | 0.0 | 0.0 | 0.00 | 1.19 | 0.10 | 99 | 1042.9 |
| 20260904093038 | 20 | 289 | 0.0 | 0.0 | 0.00 | 1.19 | 0.10 | 99 | 1042.9 |
| 20260904092539 | 20 | 289 | 0.0 | 0.0 | 0.00 | 1.19 | 0.10 | 99 | 1042.9 |
| 20260904092038 | 20 | 119 | 0.0 | 0.0 | 0.00 | 1.19 | 0.10 | 99 | 1043.2 |
| 20260904091538 | 20 | 148 | 0.0 | 1.6 | 0.00 | 1.19 | 0.10 | 99 | 1043.2 |
| 20260904091040 | 20 | 158 | 0.0 | 4.8 | 0.00 | 1.19 | 0.10 | 99 | 1043.2 |
| 20260904090541 | 20 | 128 | 0.0 | 4.8 | 0.00 | 1.19 | 0.10 | 99 | 1042.4 |
| 20260904090036 | 20 | 158 | 0.0 | 3.2 | 0.00 | 1.19 | 0.10 | 99 | 1042.4 |
| 20260904085523 | 20 | 159 | 0.0 | 0.0 | 0.00 | 1.19 | 0.10 | 98 | 1042.4 |
| 20260904085011 | 20 | 159 | 0.0 | 0.0 | 0.00 | 1.19 | 0.10 | 98 | 1042.3 |
| 20260904084500 | 20 | 159 | 0.0 | 0.0 | 0.03 | 1.19 | 0.10 | 99 | 1042.3 |
| 20260904083947 | 20 | 159 | 0.0 | 0.0 | 0.03 | 1.19 | 0.10 | 99 | 1042.3 |
| 20260904083435 | 20 | 159 | 0.0 | 0.0 | 0.03 | 1.19 | 0.10 | 99 | 1041.9 |
| 20260904082925 | 19 | 159 | 0.0 | 3.2 | 0.03 | 1.19 | 0.10 | 99 | 1041.9 |
| 20260904082420 | 19 | 156 | 0.0 | 3.2 | 0.03 | 1.19 | 0.10 | 99 | 1041.9 |
| 20260904082125 | 19 | 165 | 0.0 | 3.2 | 0.03 | 1.19 | 0.10 | 99 | 1042.3 |
| 20260904081408 | 19 | 208 | 0.0 | 0.0 | 0.03 | 1.19 | 0.10 | 98 | 1042.3 |
| 20260904081125 | 19 | 208 | 0.0 | 0.0 | 0.03 | 1.19 | 0.10 | 98 | 1042.3 |
| 20260904080356 | 19 | 208 | 0.0 | 0.0 | 0.03 | 1.19 | 0.10 | 98 | 1042.4 |
| 20260904075844 | 19 | 208 | 0.0 | 0.0 | 0.03 | 1.19 | 0.10 | 98 | 1042.4 |
| 20260904075605 | 19 | 208 | 0.0 | 0.0 | 0.03 | 1.19 | 0.10 | 98 | 1042.3 |
| 20260904074837 | 19 | 208 | 0.0 | 0.0 | 0.00 | 1.17 | 0.08 | 98 | 1042.3 |
| 20260904074327 | 19 | 208 | 0.0 | 0.0 | 0.00 | 1.17 | 0.08 | 98 | 1042.3 |